DW4294 Weather Reports


time (UTC)temp
F
wind
direction
speed
knots
gust
knots
rain 1hr
in
rain 24hr
in
rain mn
in
humidity
%
barometer
mb
20260506111552 68 88 0.0 0.9 0.00 0.00 0.00 87 1019.0
20260506101547 64 68 0.0 0.0 0.00 0.00 0.00 92 1019.0
20260506091550 65 49 0.0 0.0 0.00 0.00 0.00 91 1019.0
20260506081548 65 69 0.0 0.0 0.00 0.00 0.00 87 1019.0
20260506071548 67 84 0.0 0.0 0.00 0.00 0.00 82 1019.0
20260506061547 68 76 0.0 1.7 0.00 0.00 0.00 81 1019.0
20260506041547 68 82 0.0 1.7 0.00 0.00 0.00 80 1021.0
20260506031547 68 162 0.0 0.0 0.00 0.00 0.00 79 1021.0
20260506021547 68 318 0.0 1.7 0.00 0.00 0.00 77 1021.0
20260506011547 69 75 1.7 2.6 0.00 0.00 0.00 77 1021.0
20260506001547 69 129 0.9 0.9 0.00 0.00 0.00 79 1020.0
20260505231548 71 292 1.7 1.7 0.00 0.00 0.00 72 1020.0
20260505221550 72 151 2.6 2.6 0.00 0.00 0.00 68 1020.0
20260505211548 73 176 2.6 2.6 0.00 0.00 0.00 66 1020.0
20260505201547 74 166 2.6 3.5 0.00 0.00 0.00 64 1021.0
20260505191547 76 238 3.5 4.3 0.00 0.00 0.00 59 1021.0
20260505181547 77 240 2.6 3.5 0.00 0.00 0.00 58 1022.0
20260505171548 76 342 1.7 2.6 0.00 0.00 0.00 61 1022.0
20260505161548 75 139 1.7 3.5 0.00 0.00 0.00 59 1022.0
20260505151548 78 235 1.7 5.2 0.00 0.00 0.00 50 1022.0
20260505121548 72 82 0.0 0.0 0.00 0.00 0.00 66 1022.0